Location: Poprad
(49.0500°N, 20.3000°E)
Time: 06:51:03
(UTC+02:00)

CAS-6 - Pass Details

Date: 22 April 2024
Orbit: 607 x 628 km, 97.8° (Epoch: 24 May)

Event Time Altitude Azimuth Distance (km) Brightness Sun altitude
Exits shadow 21:33:33 19° 86° (E) 1,502 ? -16.3°
Maximum altitude 21:34:49 21° 62° (ENE) 1,398 ? -16.5°
Drops below altitude 10° 21:38:04 10° 14° (NNE) 1,991 ? -16.8°
Sets 21:40:39 0° 358° (N) 2,897 ? -17.1°
